Flag for U.S.A. Weather past 2 weeks in St. George, Utah, U.S.A.

Now
68 °F

Clear.


Feels Like: 68 °F
Forecast: 60 / 83 °F
Wind: 3 mph from Southeast

Location: Saint George

Current Time: May 3, 2015 at 5:00:34 AM

Latest Report: May 3, 2015 at 4:35 AM


Visibility: 10 mi

Pressure: 29.86 "Hg

Humidity: 23%

Dew point: 28 °F

Location of St. GeorgeLocation

Historic Weather in St. George — Graph

°F

St. George temperature yesterday

Maximum temperature yesterday: 90 °F (at 2:35 PM)
Minimum temperature yesterday: 57 °F (at 6:55 AM)
Average temperature yesterday: 75 °F

Past Weeks' High & Low Weather Summary

 TemperatureHumidityPressure
High90 °F (May 1, 3:55 PM)87% (Apr 26, 3:15 AM)30.19 "Hg (Apr 26, 3:15 AM)
Low43 °F (Apr 18, 7:15 AM)10% (Apr 20, 3:15 PM)29.73 "Hg (Apr 24, 4:55 PM)
Average66 °F28%29.91 "Hg
* Reported Apr 18 3:15 AM — May 3 3:55 AM, St. George, Weather by CustomWeather, © 2015

Note: Actual official high and low records may vary slightly from our data, if they occured in-between our weather recording intervals... More about our weather records

Advertising

St. George weather history for previous 24 hours

 ConditionsComfort  
Time TempWeatherWind HumidityBarometerVisibility
3:55 AM
Sun, May 3
70 °FClear.No wind21%29.86 "Hg10 mi
3:35 AM70 °FClear.5 mph23%29.86 "Hg10 mi
3:15 AM72 °FPassing clouds.5 mph22%29.86 "Hg10 mi
2:55 AM72 °FPassing clouds.3 mph20%29.85 "Hg10 mi
2:35 AM72 °FClear.6 mph20%29.85 "Hg10 mi
2:15 AM72 °FClear.3 mph20%29.85 "Hg10 mi
1:55 AM73 °FClear.6 mph19%29.85 "Hg10 mi
1:35 AM72 °FClear.No wind20%29.86 "Hg10 mi
1:15 AM73 °FClear.No wind19%29.86 "Hg10 mi
12:55 AM72 °FPassing clouds.8 mph20%29.85 "Hg10 mi
12:35 AM72 °FClear.10 mph20%29.85 "Hg10 mi
12:15 AM72 °FClear.9 mph20%29.85 "Hg10 mi
11:55 PM
Sat, May 2
73 °FClear.10 mph19%29.84 "Hg10 mi
11:35 PM73 °FClear.5 mph19%29.84 "Hg10 mi
11:15 PM73 °FClear.10 mph17%29.84 "Hg10 mi
10:55 PM73 °FClear.8 mph17%29.83 "Hg10 mi
10:35 PM75 °FClear.3 mph18%29.83 "Hg10 mi
10:15 PM77 °FClear.3 mph15%29.83 "Hg10 mi
9:55 PM79 °FClear.9 mph15%29.82 "Hg10 mi
9:15 PM81 °FSunny.8 mph14%29.81 "Hg10 mi
8:55 PM82 °FSunny.9 mph13%29.80 "Hg10 mi
8:35 PM82 °FSunny.12 mph13%29.80 "Hg10 mi
8:15 PM84 °FSunny.15 mph12%29.79 "Hg10 mi
7:55 PM84 °FSunny.21 mph12%29.79 "Hg10 mi
7:35 PM88 °FSunny.23 mph11%29.78 "Hg10 mi
7:15 PM88 °FSunny.20 mph11%29.79 "Hg10 mi
6:55 PM88 °FSunny.13 mph12%29.79 "Hg10 mi
6:35 PM88 °FSunny.16 mph11%29.79 "Hg10 mi
6:15 PM88 °FSunny.10 mph11%29.80 "Hg10 mi
5:55 PM88 °FSunny.9 mph11%29.80 "Hg10 mi
5:35 PM88 °FSunny.6 mph11%29.80 "Hg10 mi
5:15 PM88 °FSunny.16 mph11%29.80 "Hg10 mi
4:55 PM88 °FSunny.10 mph12%29.81 "Hg10 mi
4:35 PM88 °FSunny.13 mph12%29.81 "Hg10 mi
4:15 PM88 °FSunny.14 mph11%29.82 "Hg10 mi
3:55 PM90 °FSunny.14 mph11%29.83 "Hg10 mi
2:55 PM88 °FSunny.8 mph12%29.85 "Hg10 mi
2:35 PM90 °FSunny.15 mph12%29.86 "Hg10 mi
2:15 PM88 °FSunny.13 mph13%29.87 "Hg10 mi
1:55 PM88 °FSunny.12 mph13%29.88 "Hg10 mi
1:35 PM86 °FSunny.10 mph14%29.90 "Hg10 mi
1:15 PM84 °FSunny.7 mph15%29.90 "Hg10 mi
12:55 PM84 °FSunny.3 mph16%29.92 "Hg10 mi
12:35 PM82 °FSunny.No wind17%29.92 "Hg10 mi
12:15 PM81 °FSunny.5 mph17%29.93 "Hg10 mi
11:55 AM79 °FSunny.No wind18%29.94 "Hg10 mi
11:35 AM77 °FSunny.3 mph18%29.94 "Hg10 mi
11:15 AM75 °FSunny.3 mph19%29.95 "Hg10 mi
10:55 AM73 °FSunny.No wind20%29.95 "Hg10 mi
10:35 AM72 °FSunny.No wind22%29.95 "Hg10 mi
10:15 AM70 °FSunny.No wind21%29.96 "Hg10 mi
9:55 AM70 °FSunny.3 mph21%29.96 "Hg10 mi
9:35 AM68 °FSunny.No wind23%29.96 "Hg10 mi
9:15 AM66 °FSunny.No wind24%29.97 "Hg10 mi
8:55 AM64 °FSunny.5 mph26%29.96 "Hg10 mi
8:35 AM64 °FSunny.3 mph24%29.96 "Hg10 mi
8:15 AM63 °FSunny.No wind25%29.96 "Hg10 mi
7:55 AM61 °FSunny.3 mph27%29.95 "Hg10 mi
7:35 AM59 °FClear.3 mph27%29.95 "Hg10 mi
7:15 AM59 °FClear.6 mph27%29.94 "Hg10 mi
6:55 AM57 °FClear.6 mph29%29.94 "Hg10 mi
6:35 AM61 °FClear.No wind25%29.93 "Hg10 mi
6:15 AM61 °FClear.No wind25%29.93 "Hg10 mi
5:55 AM59 °FClear.No wind27%29.93 "Hg10 mi
5:35 AM61 °FClear.No wind27%29.93 "Hg10 mi
5:15 AM63 °FClear.No wind24%29.93 "Hg10 mi
Weather by CustomWeather, © 2015

See weather overviewHow to use our weather pages